Tracking 25689 objects as of 7-Jul-2022
HD Live streaming from Space Station
objects crossing your sky now

BLOCK DM-SL R/B

Track BLOCK DM-SL R/B now!


NORAD ID: 39774
Int'l Code: 2014-030B
Perigee: 412.9 km
Apogee: 35,441.2 km
Inclination: 0.7 °
Period: 628.2 minutes
Semi major axis: 24298 km
RCS: Unknown
Launch date: May 26, 2014
Source: Sea Launch (SEAL)
Launch site: SEA LAUNCH (SEAL)

Note: This is a ROCKET BODY
aabbcc
Your satellite tracking list
Your tracking list is empty




NASA's NSSDC Master Catalog

Two Line Element Set (TLE):
1 39774U 14030B   22187.98997269 -.00000022  00000-0  60082-4 0  9992
2 39774   0.7399  30.1418 7208063 302.0015   3.1024  2.29216542 67910
Source of the keplerian elements: AFSPC